Location: La Fredeussais
(48.1780°N, 1.3980°W)
Time: 04:06:41
(UTC+00:00)

Cosmos 2297 - Pass Details

Date: 09 May 2021
Orbit: 837 x 857 km, 71.0° (Epoch: 13 June)

Event Time Altitude Azimuth Distance (km) Brightness Sun altitude
Exits shadow 23:31:58 44° 224° (SW) 1,162 4.1 -23.9°
Maximum altitude 23:33:49 75° 299° (WNW) 881 3.8 -23.9°
Drops below altitude 10° 23:39:31 10° 25° (NNE) 2,477 6.9 -24.0°
Sets 23:41:59 0° 27° (NNE) 3,413 7.8 -24.0°
